Regional Weather Roundup
Issued by NWS

Home | Current Version | Previous Version | Text Only | Print | Product List | Glossary Off
Versions: 1 2 3 4 5 6 7 8 9 10 11 12 13 14 15 16 17 18 19 20 21 22 23 24 25 26 27 28 29 30 31 32 33 34 35 36 37 38 39 40 41 42 43 44 45 46 47 48 49 50

000
ASUS45 KSLC 300110
RWRUT

UTAH REGIONAL WEATHER ROUNDUP
NATIONAL WEATHER SERVICE SALT LAKE CITY UT
700 PM MDT MON JUN 29 2015

UTZ001>011-023>025-300200-

NORTHERN UTAH

CITY           SKY/WX    TMP DP  RH WIND       PRES   REMARKS
BRIGHAM CITY   MOSUNNY   98  41  14 NW3       29.98S HX  93
HILL AFB       NOT AVBL
LOGAN          SUNNY     96  45  17 CALM      29.99F HX  92
OGDEN          SUNNY     99  43  14 NW5       29.98F HX  95
PROVO AIRPORT  MOSUNNY   99  50  19 SE9       30.00F HX  95
SALT LAKE CITY MOSUNNY  102  45  14 NW7       29.96F HX  98
VERNAL         MOSUNNY   91  45  20 W6        30.08F
WENDOVER       PTSUNNY   99  39  12 SW3       29.98S HX  94
HEBER CITY     MOSUNNY   93  45  18 NW7       30.12S
WEST JORDAN    SUNNY     99  46  16 N3        30.01F HX  95

$$

UTZ012>022-026-027-300200-

SOUTHERN/CENTRAL UTAH

CITY           SKY/WX    TMP DP  RH WIND       PRES   REMARKS
BLANDING       MOSUNNY   90  44  20 CALM      30.19F
BRYCE CANYON   CLOUDY    80  45  28 NW13      30.32F
CEDAR CITY     CLOUDY    86  44  23 N15G22    30.12S
DELTA          PTSUNNY   96  35  11 SE22G33   30.02F HX  91
HANKSVILLE     PTSUNNY  100  36  10 NW7       29.98F HX  95
MILFORD        CLOUDY    91  40  16 SE7       30.04F
MOAB/CYNLANDS  SUNNY     98  40  13 NE6       29.96F HX  93
PRICE          CLOUDY    87  42  20 VRB3      30.15S
ST GEORGE      PTCLDY   106  46  13 W16       29.87S HX 102
KANAB          PTSUNNY   97  45  16 W5        30.09S HX  93

$$

REGIONAL REPORTS     COLORADO/ARIZONA

CITY           SKY/WX    TMP DP  RH WIND       PRES   REMARKS
CRAIG, CO      SUNNY     89  39  17 N7        30.19F
GRAND JUNCTION SUNNY     97  44  16 W12       30.01F HX  93
RIFLE          SUNNY     94  39  14 N10       30.10F HX  90
MONTROSE       MOSUNNY   95  41  15 NW8       30.11F HX  91
CORTEZ         SUNNY     91  44  19 NE6       30.12S
PAGE, AZ       MOSUNNY  102  34   9 VRB3      29.97S HX  96
GRAND CANYON   MOSUNNY   83  46  27 W5        30.25R
KINGMAN        CLOUDY    91  53  27 N16       29.98R
FLAGSTAFF      CLOUDY    78  51  38 W5        30.28S

$$

REGIONAL REPORTS    NEVADA/IDAHO/WYOMING

CITY           SKY/WX    TMP DP  RH WIND       PRES   REMARKS
LAS VEGAS, NV    N/A    109  44  11 SE6       29.78R HX 104
ELY            MOSUNNY   91  34  13 N5        30.16F
ELKO           TSTM      90  47  22 NE8G35    30.08S
POCATELLO, ID  PTSUNNY   90  52  27 SW20G35   30.02R THUNDER
BURLEY         LGT RAIN  92  40  16 NW30G44   29.94F
EVANSTON, WY   MOSUNNY   88  40  18 VRB3      30.27S
ROCK SPRINGS   MOSUNNY   86  37  17 E10       30.25
KEMMERER       PTSUNNY   84  36  17 W3        30.29F

$$


USA.gov is the U.S. government's official web portal to all federal, state and local government web resources and services.